{"data":{"norad_id":61671,"epoch":"2026-09-21T17:22:28.760736Z","epoch_age_seconds":86237,"freshness":"FRESH","line1":"1 61671U 24193L   26264.72394399 -.00000008  00000+0  11522-4 0  9999","line2":"2 61671  53.1593 259.5083 0001393  82.7996 277.3163 15.31699998106554","mean_motion":15.31699998,"eccentricity":0.0001393,"inclination_deg":53.1593,"raan_deg":259.5083,"arg_perigee_deg":82.7996,"mean_anomaly_deg":277.3163,"bstar":1.1522e-5,"rev_number":10655,"period_min":94.013188083846,"perigee_km":469.78595262128,"apogee_km":471.69404975381,"semimajor_km":6848.8770011875,"source":"CELESTRAK","updated_at":"2026-09-22T09:00:49.401867Z"}}